Wind_Speed
28 29 30 28 26 23 20 13 15 15 16 16 16 16 16 16 17 17 17 16 14 13 10 12 6 7 8 6 13 24 21 17 22 19 13 9 5 9 8 11 14 12 11 12
25 27 27 28 29 22 20 18 18 17 18 20 21 19 17 18 16 16 17 16 16 16 12 8 8 12 9 5 5 14 16 15 18 16 10 6 3 3 5 9 9 8 3 4
25 23 26 28 29 23 24 22 20 20 21 21 21 21 17 16 16 17 17 17 16 15 13 9 14 17 10 7 8 6 9 7 12 15 9 11 8 7 12 11 11 11 12 12
24 21 23 25 25 22 26 26 24 26 25 24 23 20 19 18 19 18 17 18 17 16 15 14 12 21 16 15 14 4 7 5 10 11 11 15 12 9 14 18 18 17 18 11
21 21 24 28 26 24 25 25 27 28 28 25 23 22 18 19 22 20 19 20 21 21 20 16 16 15 19 20 20 13 8 8 13 17 16 18 21 10 18 14 18 13 9 8
20 26 29 28 25 27 26 30 32 33 30 27 23 24 21 21 22 22 23 23 23 22 20 18 17 16 20 15 13 15 17 15 16 18 26 26 22 14 11 14 10 12 14 20
23 26 27 27 28 28 27 32 33 33 31 26 24 21 25 22 23 23 24 25 25 22 22 17 17 21 20 21 19 17 18 21 22 21 29 35 29 19 7 6 11 12 13 17
22 24 24 24 25 23 22 24 27 32 30 25 25 23 26 25 24 25 26 27 27 26 22 23 19 24 27 26 23 25 23 23 26 27 30 32 32 22 4 5 7 9 10 18
18 19 20 23 24 25 28 31 33 33 30 29 26 27 27 25 29 27 27 29 30 28 28 29 31 30 31 33 26 32 30 24 19 22 31 36 25 16 20 15 5 8 13 20
17 16 16 19 23 26 27 31 31 31 33 35 36 35 32 32 35 36 38 38 38 38 35 34 39 39 37 38 38 35 28 28 27 27 29 31 26 24 20 20 21 21 18 23
24 21 18 20 23 24 27 29 30 27 30 35 38 39 39 42 44 46 45 44 44 42 40 40 46 45 42 43 41 36 32 31 30 25 22 32 35 31 25 37 35 30 29 30
28 26 25 25 25 25 25 26 27 28 29 31 35 40 44 48 50 49 49 47 47 48 43 45 47 50 52 47 45 40 40 35 30 24 26 30 28 36 43 46 39 43 40 42
36 34 30 30 30 28 27 26 25 25 27 29 30 35 38 38 40 41 39 40 42 43 42 44 52 53 55 54 53 47 42 40 31 31 30 31 35 31 26 44 60 57 52 58
38 38 35 32 32 31 28 28 27 26 26 27 30 31 33 33 34 37 36 34 35 36 39 39 44 52 59 60 56 49 46 35 28 32 28 22 16 20 44 50 48 50 52 49
38 38 33 30 33 30 28 28 27 26 26 28 29 28 28 26 28 29 30 32 33 35 38 39 43 45 54 63 60 51 50 44 38 51 34 35 39 42 38 47 57 47 42 50
37 33 31 33 35 32 26 27 29 30 30 29 25 22 26 23 23 26 32 36 30 41 43 38 45 49 50 55 58 53 47 46 47 48 47 42 49 52 64 57 59 65 67 65
38 35 31 32 35 33 28 30 31 30 33 30 28 27 28 25 24 20 22 24 30 32 40 37 43 46 48 48 45 58 51 48 49 54 50 50 52 60 70 79 77 77 78 77
40 41 37 35 38 35 30 34 36 36 34 32 31 29 24 26 22 15 20 25 28 31 31 40 45 51 53 55 54 47 56 57 60 65 66 64 61 67 72 78 88 92 91 91
42 41 40 38 39 37 34 37 38 37 36 35 30 33 30 26 24 26 26 30 31 30 30 31 43 45 50 52 55 54 50 62 66 70 77 78 76 73 77 83 84 85 84 91
43 42 40 40 36 36 37 40 36 33 36 37 36 34 32 29 33 35 34 31 31 37 43 38 33 37 42 48 52 54 62 66 77 82 81 85 86 93 91 90 94 97 103 105
43 38 39 40 39 36 41 35 34 32 35 39 40 42 41 39 41 40 39 38 39 40 37 39 37 36 41 50 58 61 68 70 79 86 93 93 91 96 97 103 105 104 102 111
45 45 45 43 41 38 39 37 38 36 37 41 41 42 41 44 46 46 47 48 49 46 49 56 50 49 49 50 51 58 65 76 79 84 93 105 109 101 99 106 110 110 117 116
47 45 45 43 42 39 42 43 39 44 39 45 46 44 47 48 47 51 54 58 56 59 61 51 49 52 55 55 54 53 55 56 62 73 80 88 106 107 108 106 111 110 108 104
51 46 46 43 44 46 47 52 48 43 45 43 44 47 49 51 55 59 60 61 63 59 51 50 52 52 47 47 49 51 52 52 54 58 63 65 66 72 81 85 86 90 99 101
46 43 45 45 43 44 47 48 49 53 50 48 53 55 57 58 61 58 61 58 50 47 50 51 49 48 48 49 50 52 54 57 59 62 63 64 66 70 74 76 80 84 89 90
43 41 41 40 42 45 51 53 53 51 52 55 53 54 57 57 59 59 53 51 51 49 51 49 48 48 49 49 51 54 58 61 64 65 66 66 67 68 69 71 76 81 84 88
Wind_Direction
253 250 245 246 248 256 256 241 245 234 222 227 228 236 249 267 268 268 266 274 276 271 266 262 254 196 226 24 5 19 32 44 35 27 43 71 154 211 232 240 244 255 270 279
255 250 244 239 242 246 250 241 235 237 228 229 241 247 250 257 258 266 269 272 270 274 275 285 235 238 232 255 324 355 18 51 31 13 6 17 54 348 286 249 242 267 249 304
251 253 244 240 243 239 248 242 232 230 237 244 242 251 255 258 262 262 269 269 269 275 278 270 249 260 264 251 257 354 21 14 14 18 17 350 313 347 265 292 267 252 282 305
257 251 244 241 245 245 248 244 233 231 235 242 244 244 257 264 264 262 264 269 271 271 267 258 261 265 273 245 247 258 307 277 340 350 337 340 328 296 308 272 276 263 276 275
258 250 239 237 237 240 244 241 239 235 235 239 250 258 256 264 268 271 274 272 267 262 263 256 263 279 256 274 271 252 256 283 279 325 318 320 319 305 296 282 271 261 267 255
251 243 240 243 237 239 240 239 235 236 240 240 244 257 260 263 267 270 271 267 267 267 268 263 270 268 243 246 241 258 260 276 272 306 328 321 322 324 315 297 285 263 256 266
247 247 247 245 242 246 246 246 243 247 247 249 248 250 265 265 265 268 265 264 264 262 259 256 264 244 233 242 242 245 263 267 266 284 322 336 331 335 327 281 248 246 269 270
250 250 248 243 247 259 268 266 256 247 247 250 251 251 253 260 261 259 262 261 259 263 266 259 269 267 238 240 245 251 265 272 256 276 304 318 337 337 292 233 254 257 273 273
256 259 255 255 254 250 243 242 242 243 245 244 245 246 251 254 258 259 258 260 259 254 254 260 265 261 252 238 247 259 268 279 260 261 278 297 296 320 298 314 252 267 298 278
254 261 262 259 256 251 249 253 255 252 243 241 241 239 241 246 251 252 249 249 250 249 249 248 257 258 253 259 262 258 267 273 267 279 289 287 296 287 270 303 305 305 289 272
254 261 268 268 260 257 256 255 256 254 257 251 248 247 247 248 250 252 254 256 257 257 255 252 253 257 255 249 261 272 267 269 270 270 276 282 262 295 259 280 296 285 273 272
258 261 268 270 272 270 266 263 260 258 255 253 251 252 252 253 254 256 258 259 261 263 261 261 256 259 258 255 253 260 265 267 274 270 270 268 265 266 235 262 272 276 252 256
256 260 264 268 267 268 269 269 268 264 260 255 254 254 256 260 262 264 266 265 263 260 258 256 258 258 252 254 254 256 263 269 276 279 257 254 263 239 222 255 263 262 258 253
256 260 261 263 262 262 262 261 261 262 255 250 253 256 260 262 265 266 266 264 262 261 260 254 254 253 248 252 255 255 261 262 262 261 262 223 171 243 221 233 245 247 244 245
256 260 259 258 258 256 260 264 260 258 257 255 255 255 256 257 266 275 275 281 278 270 268 261 257 249 247 248 251 250 255 252 255 246 251 222 205 233 224 229 236 249 262 257
252 251 253 255 258 253 256 258 258 260 261 255 259 261 267 262 264 272 266 275 276 266 270 265 262 261 251 252 253 251 254 245 249 247 244 241 235 261 252 251 255 258 264 272
250 246 250 254 257 255 249 249 254 256 258 261 256 257 264 260 260 274 286 291 272 261 259 250 254 259 260 260 260 254 247 243 242 242 248 252 254 256 254 252 259 261 268 275
245 246 246 247 248 252 251 252 256 256 255 257 260 259 254 256 256 271 311 318 316 294 262 257 255 257 258 261 260 254 240 243 242 241 252 261 262 258 257 259 258 259 269 272
243 246 247 246 249 253 253 253 257 262 263 256 250 258 260 265 278 291 291 305 308 312 309 282 262 261 262 267 268 269 259 245 247 249 247 257 262 265 265 266 265 270 271 271
240 243 247 245 246 252 256 257 263 261 255 253 253 260 266 277 290 288 285 289 296 311 312 305 287 276 272 269 272 271 266 264 256 251 258 263 264 265 266 264 269 270 274 285
239 240 237 239 243 243 250 252 261 254 243 248 254 256 261 283 295 296 297 297 306 307 303 301 289 279 270 264 263 266 258 262 262 260 257 263 268 269 269 270 274 277 278 279
238 236 234 234 240 249 253 254 254 253 253 252 256 263 269 286 291 296 298 301 300 301 298 301 296 291 289 280 271 264 260 259 262 261 259 262 265 267 267 269 274 274 276 276
234 237 237 241 247 247 252 255 259 258 261 258 260 262 272 282 292 297 299 299 298 296 301 291 288 289 291 288 285 281 274 268 266 263 262 264 262 261 266 270 271 277 278 279
234 234 234 245 239 249 253 255 262 264 274 283 269 271 280 285 292 294 294 293 295 298 294 292 293 291 286 284 284 285 285 285 282 277 273 273 272 270 268 271 274 277 278 280
234 241 243 238 246 252 256 264 273 278 280 284 288 289 289 290 290 290 292 294 292 290 289 290 290 291 290 289 287 286 284 281 279 279 279 280 280 279 278 279 278 277 276 278
237 242 243 248 250 255 264 270 276 281 287 288 289 291 292 293 293 292 291 290 289 287 286 285 283 283 284 283 283 284 284 284 284 284 284 283 283 283 283 282 283 284 283 283
Height
10924 10927 10931 10934 10935 10939 10941 10941 10942 10943 10944 10947 10951 10955 10958 10959 10962 10964 10967 10968 10968 10968 10968 10966 10966 10963 10962 10962 10959 10955 10952 10949 10946 10942 10941 10940 10941 10942 10944 10947 10949 10951 10952 10952
10919 10921 10926 10928 10930 10935 10936 10936 10937 10940 10942 10944 10947 10951 10955 10957 10958 10960 10962 10963 10963 10964 10964 10961 10961 10960 10959 10959 10956 10954 10952 10949 10946 10942 10940 10940 10940 10940 10940 10943 10945 10947 10949 10951
10913 10918 10920 10922 10925 10931 10933 10933 10935 10938 10939 10941 10945 10948 10950 10953 10955 10957 10958 10958 10959 10960 10958 10957 10956 10956 10956 10957 10953 10952 10950 10949 10942 10943 10940 10939 10939 10940 10939 10940 10941 10944 10947 10947
10910 10914 10917 10919 10922 10927 10928 10930 10931 10932 10934 10937 10941 10945 10945 10948 10949 10953 10954 10954 10955 10954 10952 10952 10952 10952 10953 10952 10950 10949 10949 10945 10939 10939 10937 10937 10935 10936 10935 10936 10938 10941 10943 10944
10906 10910 10912 10912 10916 10920 10922 10926 10927 10928 10930 10933 10937 10938 10942 10944 10944 10947 10949 10949 10948 10947 10947 10948 10947 10946 10948 10949 10951 10949 10947 10943 10940 10938 10937 10936 10933 10932 10932 10931 10934 10936 10938 10940
10903 10903 10905 10906 10912 10913 10916 10917 10919 10921 10926 10930 10935 10936 10938 10939 10940 10942 10942 10942 10941 10941 10942 10944 10943 10944 10945 10946 10946 10948 10943 10943 10939 10937 10936 10934 10932 10930 10929 10927 10928 10931 10935 10936
10897 10898 10900 10903 10906 10908 10911 10912 10915 10919 10923 10928 10931 10934 10933 10935 10936 10938 10938 10936 10935 10937 10936 10936 10938 10938 10940 10940 10940 10941 10939 10938 10937 10935 10935 10936 10932 10929 10926 10925 10926 10927 10930 10933
10892 10894 10896 10899 10902 10904 10908 10910 10913 10916 10921 10925 10927 10929 10929 10930 10932 10932 10931 10929 10928 10930 10933 10933 10934 10930 10933 10932 10935 10933 10934 10933 10932 10935 10935 10934 10935 10931 10924 10921 10922 10922 10925 10925
10889 10891 10893 10895 10898 10899 10900 10901 10903 10908 10914 10918 10921 10922 10923 10925 10923 10925 10925 10922 10922 10923 10924 10927 10922 10923 10923 10925 10926 10926 10927 10927 10927 10929 10930 10930 10931 10928 10925 10924 10920 10920 10921 10921
10885 10887 10889 10891 10891 10893 10894 10895 10898 10902 10904 10908 10910 10913 10915 10915 10915 10914 10912 10912 10912 10913 10916 10917 10914 10914 10915 10917 10915 10917 10919 10921 10919 10921 10921 10923 10921 10920 10920 10914 10919 10917 10915 10917
10880 10882 10884 10885 10886 10887 10888 10890 10892 10896 10898 10900 10902 10906 10908 10906 10905 10904 10907 10907 10906 10908 10912 10908 10905 10905 10909 10910 10910 10908 10912 10914 10914 10913 10914 10913 10911 10910 10913 10906 10907 10909 10910 10908
10875 10876 10878 10879 10880 10882 10883 10885 10887 10889 10890 10892 10894 10897 10896 10895 10893 10895 10897 10900 10898 10896 10902 10901 10898 10895 10894 10897 10901 10903 10903 10907 10910 10911 10908 10906 10902 10903 10911 10903 10901 10901 10898 10903
10867 10870 10873 10873 10875 10877 10879 10879 10880 10881 10883 10883 10885 10885 10885 10886 10886 10886 10889 10890 10889 10888 10889 10888 10885 10883 10884 10887 10889 10895 10896 10895 10902 10901 10900 10896 10892 10892 10904 10894 10888 10889 10888 10891
10860 10862 10865 10867 10869 10871 10873 10873 10873 10874 10873 10873 10874 10876 10878 10879 10878 10878 10879 10880 10879 10880 10878 10878 10876 10874 10874 10873 10878 10885 10886 10889 10886 10897 10897 10888 10886 10887 10887 10884 10881 10877 10876 10876
10853 10855 10857 10859 10860 10865 10867 10867 10867 10866 10864 10864 10866 10868 10868 10870 10871 10871 10869 10869 10869 10867 10864 10865 10863 10863 10862 10862 10865 10872 10875 10875 10873 10877 10885 10881 10878 10874 10866 10858 10858 10861 10861 10862
10844 10847 10849 10849 10850 10856 10860 10857 10857 10857 10856 10856 10859 10861 10861 10864 10866 10866 10865 10863 10859 10858 10856 10856 10852 10850 10852 10852 10851 10859 10860 10863 10863 10862 10865 10869 10867 10858 10857 10855 10855 10853 10849 10848
10836 10839 10840 10841 10840 10845 10850 10848 10848 10849 10848 10850 10852 10853 10853 10857 10858 10859 10857 10852 10850 10849 10848 10845 10843 10839 10837 10838 10839 10844 10847 10848 10848 10849 10852 10853 10855 10851 10848 10845 10840 10838 10834 10830
10826 10829 10832 10832 10831 10836 10841 10840 10839 10840 10841 10843 10843 10843 10844 10847 10849 10849 10846 10843 10840 10838 10839 10838 10837 10833 10830 10827 10829 10829 10831 10832 10834 10834 10834 10834 10834 10835 10833 10829 10827 10824 10818 10814
10815 10820 10822 10824 10824 10829 10832 10832 10833 10833 10834 10834 10835 10835 10836 10836 10836 10837 10837 10835 10833 10831 10829 10829 10827 10823 10820 10817 10814 10814 10817 10818 10818 10817 10817 10815 10814 10813 10812 10811 10809 10806 10802 10800
10806 10810 10813 10815 10819 10822 10822 10823 10825 10827 10824 10827 10827 10826 10827 10826 10825 10826 10825 10825 10822 10820 10819 10816 10813 10811 10808 10805 10803 10800 10798 10800 10801 10800 10800 10800 10798 10795 10793 10790 10787 10781 10775 10770
10798 10802 10804 10807 10811 10812 10813 10816 10816 10817 10818 10818 10818 10818 10818 10817 10814 10812 10810 10809 10808 10806 10802 10799 10797 10796 10795 10796 10794 10790 10786 10784 10784 10782 10784 10784 10782 10779 10774 10769 10764 10761 10757 10754
10788 10791 10795 10799 10802 10803 10805 10806 10808 10810 10811 10810 10811 10810 10810 10808 10805 10801 10798 10797 10796 10793 10789 10786 10782 10780 10778 10780 10779 10777 10773 10771 10766 10764 10765 10764 10762 10759 10754 10750 10745 10742 10737 10731
10780 10783 10786 10791 10793 10794 10795 10797 10799 10801 10802 10803 10803 10803 10802 10801 10798 10793 10788 10785 10782 10778 10775 10772 10769 10765 10759 10757 10756 10755 10756 10756 10754 10754 10752 10747 10741 10736 10732 10727 10723 10717 10712 10706
10771 10776 10780 10783 10784 10785 10786 10787 10790 10792 10794 10794 10793 10793 10792 10789 10787 10783 10779 10774 10768 10763 10758 10755 10750 10748 10746 10745 10743 10741 10738 10733 10731 10731 10731 10727 10719 10716 10715 10709 10702 10694 10685 10679
10767 10771 10772 10774 10775 10778 10778 10779 10779 10778 10780 10781 10781 10780 10778 10776 10773 10768 10763 10758 10755 10751 10748 10744 10740 10736 10732 10729 10727 10726 10723 10720 10718 10715 10710 10703 10697 10693 10689 10683 10677 10672 10664 10657
10759 10762 10766 10767 10769 10770 10771 10771 10770 10768 10768 10767 10765 10763 10760 10757 10753 10749 10747 10744 10741 10739 10735 10732 10730 10727 10723 10718 10715 10710 10706 10701 10697 10692 10687 10683 10678 10673 10668 10663 10655 10645 10640 10629